International Skating Union - Official Site

ISU World Single Distances Championships 2017
February 9-12,2017

Draw | Lap Times | Index

Referee: Dan  IMMERFALL  (USA)
Starter: Jan  ZWIER  (NED)
StartTime: EndTime: Air Temp: Ice Temp: Humidity:
18:38 20:20 9℃ -9℃ 34%
Result 5000m Men
Rankings as of Feb 12 2017 8:48PM
Rank: No.: Name: Nation: Time: Behind:
1 58 Sven  Kramer NED NED 6:06.82200m - 18.40 - (18.4)
600m - 46.80 - (28.4)
1000m - 1:16.11 - (29.3)
1400m - 1:45.30 - (29.1)
1800m - 2:14.41 - (29.1)
2200m - 2:43.56 - (29.1)
2600m - 3:12.64 - (29.0)
3000m - 3:42.04 - (29.4)
3400m - 4:10.83 - (28.7)
3800m - 4:39.43 - (28.6)
4200m - 5:08.30 - (28.8)
4600m - 5:37.45 - (29.1)
5000m - 6:06.82 - (29.3)
2 53 Jorrit  Bergsma NED NED 6:09.33200m - 18.73 - (18.7)
600m - 47.38 - (28.6)
1000m - 1:16.46 - (29.0)
1400m - 1:45.47 - (29.0)
1800m - 2:14.55 - (29.0)
2200m - 2:43.58 - (29.0)
2600m - 3:12.78 - (29.2)
3000m - 3:42.03 - (29.2)
3400m - 4:11.47 - (29.4)
3800m - 4:40.88 - (29.4)
4200m - 5:10.27 - (29.3)
4600m - 5:39.53 - (29.2)
5000m - 6:09.33 - (29.8)
2.51
3 72 Peter  Michael NZL NZL 6:11.67200m - 18.63 - (18.6)
600m - 46.98 - (28.3)
1000m - 1:16.66 - (29.6)
1400m - 1:45.90 - (29.2)
1800m - 2:15.58 - (29.6)
2200m - 2:44.75 - (29.1)
2600m - 3:14.20 - (29.4)
3000m - 3:43.73 - (29.5)
3400m - 4:13.34 - (29.6)
3800m - 4:42.90 - (29.5)
4200m - 5:12.59 - (29.6)
4600m - 5:42.09 - (29.5)
5000m - 6:11.67 - (29.5)
4.85
4 55 Douwe  de Vries NED NED 6:13.70200m - 18.66 - (18.6)
600m - 47.44 - (28.7)
1000m - 1:16.96 - (29.5)
1400m - 1:46.59 - (29.6)
1800m - 2:16.01 - (29.4)
2200m - 2:45.38 - (29.3)
2600m - 3:15.08 - (29.7)
3000m - 3:44.81 - (29.7)
3400m - 4:14.47 - (29.6)
3800m - 4:44.43 - (29.9)
4200m - 5:14.37 - (29.9)
4600m - 5:44.12 - (29.7)
5000m - 6:13.70 - (29.5)
6.88
5 7 Ted-Jan  Bloemen CAN CAN 6:14.73200m - 18.66 - (18.6)
600m - 47.29 - (28.6)
1000m - 1:16.16 - (28.8)
1400m - 1:45.08 - (28.9)
1800m - 2:14.05 - (28.9)
2200m - 2:43.03 - (28.9)
2600m - 3:12.39 - (29.3)
3000m - 3:42.13 - (29.7)
3400m - 4:12.31 - (30.1)
3800m - 4:42.73 - (30.4)
4200m - 5:13.44 - (30.7)
4600m - 5:43.91 - (30.4)
5000m - 6:14.73 - (30.8)
7.91
6 69 Sverre Lunde  Pedersen NOR NOR 6:15.77200m - 18.66 - (18.6)
600m - 48.04 - (29.3)
1000m - 1:17.78 - (29.7)
1400m - 1:47.62 - (29.8)
1800m - 2:17.31 - (29.6)
2200m - 2:47.23 - (29.9)
2600m - 3:16.94 - (29.7)
3000m - 3:46.51 - (29.5)
3400m - 4:16.28 - (29.7)
3800m - 4:45.93 - (29.6)
4200m - 5:15.50 - (29.5)
4600m - 5:45.29 - (29.7)
5000m - 6:15.77 - (30.4)
8.95
7 23 Patrick  Beckert GER GER 6:16.52200m - 18.93 - (18.9)
600m - 47.79 - (28.8)
1000m - 1:17.13 - (29.3)
1400m - 1:46.74 - (29.6)
1800m - 2:16.53 - (29.7)
2200m - 2:46.37 - (29.8)
2600m - 3:16.40 - (30.0)
3000m - 3:46.48 - (30.0)
3400m - 4:16.44 - (29.9)
3800m - 4:46.60 - (30.1)
4200m - 5:16.74 - (30.1)
4600m - 5:46.73 - (29.9)
5000m - 6:16.52 - (29.7)
9.70
8 6 Jordan  Belchos CAN CAN 6:16.92200m - 19.12 - (19.1)
600m - 48.19 - (29.0)
1000m - 1:17.41 - (29.2)
1400m - 1:46.68 - (29.2)
1800m - 2:16.06 - (29.3)
2200m - 2:45.49 - (29.4)
2600m - 3:15.15 - (29.6)
3000m - 3:44.88 - (29.7)
3400m - 4:15.25 - (30.3)
3800m - 4:45.17 - (29.9)
4200m - 5:15.80 - (30.6)
4600m - 5:46.29 - (30.4)
5000m - 6:16.92 - (30.6)
10.10
9 4 Bart  Swings BEL BEL 6:17.20200m - 18.64 - (18.6)
600m - 47.59 - (28.9)
1000m - 1:17.12 - (29.5)
1400m - 1:46.76 - (29.6)
1800m - 2:16.49 - (29.7)
2200m - 2:46.32 - (29.8)
2600m - 3:16.10 - (29.7)
3000m - 3:45.79 - (29.6)
3400m - 4:15.50 - (29.7)
3800m - 4:45.34 - (29.8)
4200m - 5:15.56 - (30.2)
4600m - 5:46.12 - (30.5)
5000m - 6:17.20 - (31.0)
10.38
10 22 Alexis  Contin FRA FRA 6:18.87200m - 19.32 - (19.3)
600m - 48.70 - (29.3)
1000m - 1:18.65 - (29.9)
1400m - 1:48.75 - (30.1)
1800m - 2:18.94 - (30.1)
2200m - 2:48.95 - (30.0)
2600m - 3:19.07 - (30.1)
3000m - 3:49.19 - (30.1)
3400m - 4:19.20 - (30.0)
3800m - 4:48.96 - (29.7)
4200m - 5:18.67 - (29.7)
4600m - 5:48.55 - (29.8)
5000m - 6:18.87 - (30.3)
12.05
11 31 Michele  Malfatti ITA ITA 6:20.40200m - 19.34 - (19.3)
600m - 49.24 - (29.9)
1000m - 1:19.03 - (29.7)
1400m - 1:48.91 - (29.8)
1800m - 2:18.71 - (29.8)
2200m - 2:48.54 - (29.8)
2600m - 3:18.64 - (30.1)
3000m - 3:48.89 - (30.2)
3400m - 4:19.18 - (30.2)
3800m - 4:49.47 - (30.2)
4200m - 5:19.60 - (30.1)
4600m - 5:50.04 - (30.4)
5000m - 6:20.40 - (30.3)
13.58
12 30 Andrea  Giovannini ITA ITA 6:21.78200m - 18.73 - (18.7)
600m - 47.93 - (29.2)
1000m - 1:17.36 - (29.4)
1400m - 1:47.08 - (29.7)
1800m - 2:16.54 - (29.4)
2200m - 2:46.00 - (29.4)
2600m - 3:15.63 - (29.6)
3000m - 3:45.50 - (29.8)
3400m - 4:15.74 - (30.2)
3800m - 4:46.15 - (30.4)
4200m - 5:17.14 - (30.9)
4600m - 5:48.79 - (31.6)
5000m - 6:21.78 - (32.9)
14.96
13 33 Nicola  Tumolero ITA ITA 6:22.31200m - 18.83 - (18.8)
600m - 48.13 - (29.3)
1000m - 1:18.10 - (29.9)
1400m - 1:48.04 - (29.9)
1800m - 2:17.68 - (29.6)
2200m - 2:47.31 - (29.6)
2600m - 3:17.42 - (30.1)
3000m - 3:47.31 - (29.8)
3400m - 4:17.58 - (30.2)
3800m - 4:48.18 - (30.6)
4200m - 5:19.13 - (30.9)
4600m - 5:50.16 - (31.0)
5000m - 6:22.31 - (32.1)
15.49
14 25 Moritz  Geisreiter GER GER 6:23.71200m - 18.87 - (18.8)
600m - 48.29 - (29.4)
1000m - 1:18.34 - (30.0)
1400m - 1:48.57 - (30.2)
1800m - 2:18.53 - (29.9)
2200m - 2:48.61 - (30.0)
2600m - 3:19.11 - (30.5)
3000m - 3:49.70 - (30.5)
3400m - 4:20.30 - (30.6)
3800m - 4:51.20 - (30.9)
4200m - 5:22.16 - (30.9)
4600m - 5:53.13 - (30.9)
5000m - 6:23.71 - (30.5)
16.89
15 41 Ryosuke  Tsuchiya JPN JPN 6:25.95200m - 19.17 - (19.1)
600m - 49.50 - (30.3)
1000m - 1:20.01 - (30.5)
1400m - 1:50.55 - (30.5)
1800m - 2:21.02 - (30.4)
2200m - 2:51.48 - (30.4)
2600m - 3:21.73 - (30.2)
3000m - 3:52.04 - (30.3)
3400m - 4:22.25 - (30.2)
3800m - 4:52.70 - (30.4)
4200m - 5:23.43 - (30.7)
4600m - 5:54.66 - (31.2)
5000m - 6:25.95 - (31.2)
19.13
16 42 Shane  Williamson JPN JPN 6:27.29200m - 18.61 - (18.6)
600m - 48.59 - (29.9)
1000m - 1:18.86 - (30.2)
1400m - 1:49.34 - (30.4)
1800m - 2:19.87 - (30.5)
2200m - 2:50.49 - (30.6)
2600m - 3:21.18 - (30.6)
3000m - 3:51.98 - (30.8)
3400m - 4:22.84 - (30.8)
3800m - 4:53.62 - (30.7)
4200m - 5:24.48 - (30.8)
4600m - 5:55.69 - (31.2)
5000m - 6:27.29 - (31.6)
20.47
17 19 Viktor Hald  Thorup DEN DEN 6:27.37200m - 20.39 - (20.3)
600m - 51.21 - (30.8)
1000m - 1:21.45 - (30.2)
1400m - 1:51.84 - (30.3)
1800m - 2:22.37 - (30.5)
2200m - 2:52.78 - (30.4)
2600m - 3:23.44 - (30.6)
3000m - 3:53.95 - (30.5)
3400m - 4:24.99 - (31.0)
3800m - 4:55.53 - (30.5)
4200m - 5:26.05 - (30.5)
4600m - 5:56.77 - (30.7)
5000m - 6:27.37 - (30.6)
20.55
18 85 Danila  Semerikov RUS RUS 6:28.16200m - 18.95 - (18.9)
600m - 48.53 - (29.5)
1000m - 1:18.49 - (29.9)
1400m - 1:48.78 - (30.2)
1800m - 2:18.83 - (30.0)
2200m - 2:49.22 - (30.3)
2600m - 3:20.04 - (30.8)
3000m - 3:50.66 - (30.6)
3400m - 4:21.32 - (30.6)
3800m - 4:51.86 - (30.5)
4200m - 5:22.90 - (31.0)
4600m - 5:55.01 - (32.1)
5000m - 6:28.16 - (33.1)
21.34
19 43 Dmitry  Babenko KAZ KAZ 6:28.41200m - 19.54 - (19.5)
600m - 49.92 - (30.3)
1000m - 1:20.48 - (30.5)
1400m - 1:50.93 - (30.4)
1800m - 2:21.29 - (30.3)
2200m - 2:51.59 - (30.3)
2600m - 3:22.18 - (30.5)
3000m - 3:53.03 - (30.8)
3400m - 4:24.03 - (30.9)
3800m - 4:55.17 - (31.1)
4200m - 5:26.47 - (31.3)
4600m - 5:57.54 - (31.0)
5000m - 6:28.41 - (30.8)
21.59
20 86 Danil  Sinitsyn RUS RUS 6:41.89200m - 19.09 - (19.0)
600m - 49.17 - (30.0)
1000m - 1:19.82 - (30.6)
1400m - 1:50.74 - (30.9)
1800m - 2:21.41 - (30.6)
2200m - 2:52.23 - (30.8)
2600m - 3:23.38 - (31.1)
3000m - 3:55.04 - (31.6)
3400m - 4:27.24 - (32.2)
3800m - 5:00.25 - (33.0)
4200m - 5:33.70 - (33.4)
4600m - 6:07.49 - (33.7)
5000m - 6:41.89 - (34.4)
35.07